Location: ????????
(55.3939°N, 37.4780°E)
Time: 07:53:16
(UTC+00:00)

Cosmos 968 Rocket - Pass Details

Date: 14 April 2026
Orbit: 735 x 765 km, 74.0° (Epoch: 14 May)

Event Time Altitude Azimuth Distance (km) Brightness Sun altitude
Rises 22:53:56 0° 328° (NNW) 3,217 7.2 -22.6°
Reaches altitude 10° 22:56:25 10° 321° (NW) 2,293 6.3 -22.5°
Enters shadow 23:01:03 38° 258° (WSW) 1,160 4.1 -22.2°
